Weather History for KYKM - July, 2012

Change the Weather History Date:

Wednesday, July 18, 2012

  Actual Average Record
Temperature  
Mean Temperature 79 °F 71 °F  
Max Temperature 96 °F 89 °F 105 °F (1960)
Min Temperature 62 °F 54 °F 41 °F (1986)
Degree Days  
Heating Degree Days 0 1  
Month to date heating degree days 8 18  
Since 1 June heating degree days 120 116  
Since 1 July heating degree days 8 18  
Cooling Degree Days 14 7  
Month to date cooling degree days 195 99  
Year to date cooling degree days 273 184  
Since 1 June cooling degree days 249 164  
Growing Degree Days 29 (Base 50)    
Moisture  
Dew Point 55 °F    
Average Humidity 51    
Maximum Humidity 78    
Minimum Humidity 24    
Precipitation  
Precipitation 0.00 in 0.01 in 0.30 in (1987)
Month to date precipitation 0.04 0.15  
Year to date precipitation 5.26 4.44  
Snow  
Snow 0.00 in 0.00 in 0.00 in (2002)
Month to date snowfall 0.0 0.0  
Year to date snowfall 21.5 8.6  
Since 1 July snowfall 0.0 0.0  
Snow Depth 0.00 in    
Sea Level Pressure  
Sea Level Pressure 29.83 in    
Wind  
Wind Speed 5 mph (NW)    
Max Wind Speed 14 mph    
Max Gust Speed 18 mph    
Visibility 10 miles    
Events      
T = Trace of Precipitation, MM = Missing Value Source: NWS Daily Summary

Daily Weather History Graph

Daily Weather History Graph

Search for Another Location

Airport or City:

Trip Planner

Search our weather history database for the weather conditions in past years. The results will help you decide how hot, cold, wet, or windy it might be!

Date:

Astronomy

Jul. 18, 2012 Rise Set
Actual Time 5:27 AM PDT 8:48 PM PDT
Civil Twilight 4:50 AM PDT 9:25 PM PDT
Nautical Twilight 4:01 AM PDT 10:14 PM PDT
Astronomical Twilight 2:59 AM PDT 11:15 PM PDT
Moon 5:09 AM PDT (7/18) 8:16 PM PDT (7/18)
Length of Visible Light 16h 35m
Length of Day
15h 21m
Waning Crescent, 0% of the Moon is Illuminated
Jul 18
Waning Crescent
Jul 18
New
Jul 26
First Quarter
Aug 1
Full
Aug 9
Last Quarter

Hourly Weather History & Observations

Time (PDT) Temp. Heat Index Dew Point Humidity Pressure Visibility Wind Dir Wind Speed Gust Speed Precip Events Conditions
12:53 AM 69.1 °F - 57.9 °F 68% 29.81 in 10.0 mi WNW 4.6 mph - N/A   Clear
1:53 AM 69.1 °F - 57.9 °F 68% 29.81 in 10.0 mi WNW 3.5 mph - N/A   Clear
2:53 AM 72.0 °F - 57.9 °F 61% 29.81 in 10.0 mi NNW 12.7 mph 18.4 mph N/A   Clear
3:53 AM 71.1 °F - 57.9 °F 63% 29.82 in 10.0 mi NNW 6.9 mph - N/A   Clear
4:53 AM 64.0 °F - 57.0 °F 78% 29.84 in 10.0 mi WSW 3.5 mph - N/A   Clear
5:53 AM 63.0 °F - 55.9 °F 78% 29.86 in 10.0 mi Calm Calm - N/A   Clear
6:53 AM 71.1 °F - 57.9 °F 63% 29.86 in 10.0 mi NNW 3.5 mph - N/A   Clear
7:53 AM 75.9 °F - 57.0 °F 52% 29.87 in 10.0 mi Variable 6.9 mph - N/A   Clear
8:53 AM 78.1 °F - 57.0 °F 48% 29.87 in 10.0 mi NW 6.9 mph - N/A   Clear
9:53 AM 82.0 °F 81.7 °F 57.0 °F 42% 29.86 in 10.0 mi Variable 5.8 mph - N/A   Partly Cloudy
10:53 AM 86.0 °F 84.9 °F 57.0 °F 37% 29.85 in 10.0 mi Calm Calm - N/A   Scattered Clouds
11:53 AM 89.6 °F 87.3 °F 53.6 °F 29% 29.87 in 10.0 mi Calm Calm - N/A   Scattered Clouds
12:53 PM 91.0 °F - 52.0 °F 26% 29.83 in 10.0 mi NW 4.6 mph - N/A   Scattered Clouds
1:53 PM 91.9 °F - 52.0 °F 26% 29.82 in 10.0 mi SE 5.8 mph - N/A   Scattered Clouds
2:53 PM 93.0 °F 91.1 °F 55.0 °F 28% 29.80 in 10.0 mi Variable 3.5 mph - N/A   Scattered Clouds
3:53 PM 93.9 °F 91.7 °F 54.0 °F 26% 29.80 in 10.0 mi Variable 3.5 mph - N/A   Scattered Clouds
4:53 PM 93.9 °F 91.4 °F 53.1 °F 25% 29.80 in 10.0 mi Calm Calm - N/A   Scattered Clouds
5:53 PM 93.9 °F 91.4 °F 53.1 °F 25% 29.78 in 10.0 mi East 5.8 mph - N/A   Scattered Clouds
6:53 PM 93.0 °F - 52.0 °F 25% 29.78 in 10.0 mi ESE 4.6 mph - N/A   Scattered Clouds
7:53 PM 90.0 °F 88.1 °F 55.9 °F 31% 29.80 in 10.0 mi NNW 9.2 mph - N/A   Partly Cloudy
8:53 PM 84.9 °F 83.6 °F 55.0 °F 36% 29.82 in 10.0 mi NW 5.8 mph - N/A   Clear
9:53 PM 82.0 °F 81.3 °F 54.0 °F 38% 29.85 in 10.0 mi NW 4.6 mph - N/A   Clear
10:53 PM 79.0 °F - 55.0 °F 44% 29.85 in 10.0 mi NW 9.2 mph - N/A   Clear
11:53 PM 78.1 °F - 55.9 °F 46% 29.86 in 10.0 mi NNW 8.1 mph - N/A   Clear